Kodiak, AK

8:12 AM AKST en Diciembre 11, 2017 (GMT -0900)
Kodiak

Tiempo Historia de PADQ - Agosto, 2017

Change the Weather History Date:

Domingo, Agosto 13, 2017

  Actual Average Record
Temperature  
Temperatura media 56 ° F 56 ° F  
Temperatura máxima 63 ° F 62 ° F 77 ° F (2000)
Temperatura mínima 48 ° F 50 ° F 36 ° F (1928)
Degree Days  
Grados día de calefacción 9 9  
Month to date heating degree days 109 117  
Since 1 June heating degree days 804 905  
Since 1 July heating degree days 388 444  
Cooling Degree Days 0 0  
Month to date cooling degree days 0 0  
Year to date cooling degree days 0 1  
Since 1 June cooling degree days 0 1  
Growing Degree Days 6 (Base 50)    
Moisture  
Punto de rocío 40 ° F    
Average Humidity 56    
Maximum Humidity 66    
Minimum Humidity 46    
Precipitación  
Precipitación 0.00 pul 0.14 pul 1.92 pul (1966)
Month to date precipitation 3.63 1.81  
Year to date precipitation 36.12 44.04  
Nieve  
Nieve 0.00 pul 0.00 pul - ()
Month to date snowfall 0.0 0.0  
Since 1 June snowfall 0.0 0.0  
Since 1 July snowfall 0.0 0.0  
Grosos de nieve 0.00 pul    
Presión al nivel del mar  
Presión al nivel del mar 29.54 pul    
Viento  
Velocidad del viento 7 mph (Oeste)    
Velocidad máxima del viento 14 mph    
Max Gust Speed 18 mph    
Visibilidad 10 Millas    
Eventos      
T = Trace of Precipitation, MM = Missing Value Source: NWS Daily Summary

Daily Weather History Graph

Daily Weather History Graph

Search for Another Location

Airport or City:

Trip Planner

Search our weather history database for the weather conditions in past years. The results will help you decide how hot, cold, wet, or windy it might be!

Date:

Astronomía

Aug. 13, 2017 Salida Puesta
Hora real 6:30 AM AKDT 9:56 PM AKDT
Crepúsculo civil 5:43 AM AKDT 10:43 PM AKDT
Crepúsculo náutico 4:37 AM AKDT 11:49 PM AKDT
Crepúsculo astronómico 2:47 AM AKDT 2:06 AM AKDT
Luna Sin salida de luna 1:59 PM AKDT (8/13)
Horas de luz 16h 59m
Horas de luz
15h 25m
Gibosa menguante, 64% of the Moon is Illuminated
Ago 13
Gibosa menguante
Ago 14
Cuarto menguante
Ago 21
Nueva
Ago 29
Cuarto creciente
Sep 5
Luna llena

Hourly Weather History & Observations

Hora (AKDT) Temp. Punto de rocío Humedad Presión Visibilidad Wind Dir Velocidad del viento Velocidad de ráfagas Precip Eventos Condiciones
12:53 AM 53.1 ° F 34.0 ° F 48% 29.47 pul 10.0 mi OSO 9.2 mph - N/A   Despejado
1:53 AM 48.9 ° F 37.0 ° F 64% 29.47 pul 10.0 mi Sin viento Sin viento - N/A   Despejado
2:53 AM 50.0 ° F 37.9 ° F 63% 29.48 pul 10.0 mi NO 9.2 mph - N/A   Parcialmente nublado
3:53 AM 52.0 ° F 37.0 ° F 57% 29.49 pul 10.0 mi Variable 4.6 mph - N/A   Muy nublado
4:53 AM 51.1 ° F 35.1 ° F 54% 29.49 pul 10.0 mi Variable 4.6 mph - N/A   Nublado
5:53 AM 50.0 ° F 37.0 ° F 61% 29.48 pul 10.0 mi Oeste 11.5 mph 16.1 mph N/A   Nubes dispersas
6:53 AM 51.1 ° F 39.0 ° F 63% 29.49 pul 10.0 mi SO 9.2 mph 18.4 mph N/A   Muy nublado
7:53 AM 52.0 ° F 37.9 ° F 59% 29.49 pul 10.0 mi Variable 6.9 mph 16.1 mph N/A   Nublado
8:53 AM 54.0 ° F 39.0 ° F 57% 29.49 pul 10.0 mi Oeste 6.9 mph - N/A   Nublado
9:53 AM 55.9 ° F 37.9 ° F 51% 29.49 pul 10.0 mi SO 6.9 mph 17.3 mph N/A   Muy nublado
10:53 AM 57.9 ° F 39.0 ° F 49% 29.50 pul 10.0 mi Variable 4.6 mph - N/A   Nublado
11:53 AM 55.0 ° F 39.9 ° F 57% 29.52 pul 10.0 mi Este 8.1 mph - N/A   Parcialmente nublado
12:53 PM 55.9 ° F 41.0 ° F 57% 29.54 pul 10.0 mi ESE 6.9 mph - N/A   Nublado
1:53 PM 59.0 ° F 41.0 ° F 51% 29.55 pul 10.0 mi SE 3.5 mph - N/A   Nublado
2:53 PM 62.1 ° F 42.1 ° F 48% 29.57 pul 10.0 mi ONO 13.8 mph - N/A   Parcialmente nublado
3:53 PM 63.0 ° F 41.0 ° F 45% 29.57 pul 10.0 mi NO 9.2 mph 17.3 mph N/A   Despejado
4:53 PM 62.1 ° F 41.0 ° F 46% 29.58 pul 10.0 mi ONO 16.1 mph 23.0 mph N/A   Despejado
5:53 PM 63.0 ° F 43.0 ° F 48% 29.58 pul 10.0 mi NO 12.7 mph - N/A   Despejado
6:53 PM 57.9 ° F 45.0 ° F 62% 29.60 pul 10.0 mi SE 11.5 mph - N/A   Despejado
7:53 PM 57.0 ° F 46.0 ° F 67% 29.60 pul 10.0 mi ESE 6.9 mph - N/A   Despejado
8:53 PM 55.0 ° F 46.0 ° F 72% 29.62 pul 10.0 mi Variable 6.9 mph - N/A   Despejado
9:53 PM 54.0 ° F 44.1 ° F 69% 29.64 pul 10.0 mi ONO 3.5 mph - N/A   Despejado
10:53 PM 51.1 ° F 43.0 ° F 74% 29.65 pul 10.0 mi Oeste 4.6 mph - N/A   Despejado
11:53 PM 48.9 ° F 43.0 ° F 80% 29.67 pul 10.0 mi Oeste 6.9 mph - N/A   Despejado